H1 CPF 2 NER 2025 7 23 9 204 01 glonass142 H2 2001801 9142 45358 2025 7 23 0 0 0 2025 7 26 23 45 0 900 1 1 0 0 0 1 H9 10 0 60879 0.00000 0 -22487245.439 -3604010.061 11474479.320 10 0 60879 900.00000 0 -23686960.457 -3929482.895 8584400.334 10 0 60879 1800.00000 0 -24557272.414 -4059291.944 5527387.508 10 0 60879 2700.00000 0 -25061987.201 -4037122.330 2362857.748 10 0 60879 3600.00000 0 -25176625.547 -3912955.735 -847642.820 10 0 60879 4500.00000 0 -24889476.492 -3740705.009 -4041642.130 10 0 60879 5400.00000 0 -24202132.945 -3575683.042 -7156966.176 10 0 60879 6300.00000 0 -23129485.752 -3472014.319 -10132958.854 10 0 60879 7200.00000 0 -21699175.796 -3480100.204 -12911672.754 10 0 60879 8100.00000 0 -19950526.750 -3644246.819 -15439006.617 10 0 60879 9000.00000 0 -17933003.223 -4000557.382 -17665766.355 10 0 60879 9900.00000 0 -15704259.224 -4575179.564 -19548628.219 10 0 60879 10800.00000 0 -13327859.143 -5382983.116 -21050984.955 10 0 60879 11700.00000 0 -10870767.134 -6426724.559 -22143658.352 10 0 60879 12600.00000 0 -8400710.304 -7696734.928 -22805464.473 10 0 60879 13500.00000 0 -5983526.115 -9171144.242 -23023620.943 10 0 60879 14400.00000 0 -3680604.637 -10816633.632 -22793988.942 10 0 60879 15300.00000 0 -1546531.996 -12589683.769 -22121145.808 10 0 60879 16200.00000 0 372967.493 -14438267.306 -21018287.462 10 0 60879 17100.00000 0 2042705.851 -16303914.484 -19506963.169 10 0 60879 18000.00000 0 3439254.226 -18124065.362 -17616648.283 10 0 60879 18900.00000 0 4551664.693 -19834610.223 -15384163.749 10 0 60879 19800.00000 0 5381662.872 -21372511.841 -12852953.966 10 0 60879 20700.00000 0 5943305.422 -22678399.998 -10072237.389 10 0 60879 21600.00000 0 6262118.803 -23699029.759 -7096046.609 10 0 60879 22500.00000 0 6373757.448 -24389500.917 -3982176.778 10 0 60879 23400.00000 0 6322239.468 -24715145.816 -791062.982 10 0 60879 24300.00000 0 6157835.661 -24653006.987 2415391.516 10 0 60879 25200.00000 0 5934701.816 -24192843.335 5575013.298 10 0 60879 26100.00000 0 5708354.931 -23337622.978 8626559.945 10 0 60879 27000.00000 0 5533100.147 -22103482.586 11510901.208 10 0 60879 27900.00000 0 5459517.072 -20519155.125 14172157.722 10 0 60879 28800.00000 0 5532111.394 -18624889.949 16558775.725 10 0 60879 29700.00000 0 5787230.600 -16470910.108 18624517.700 10 0 60879 30600.00000 0 6251331.433 -14115470.679 20329350.628 10 0 60879 31500.00000 0 6939672.028 -11622598.227 21640215.448 10 0 60879 32400.00000 0 7855484.014 -9059604.391 22531663.678 10 0 60879 33300.00000 0 8989660.041 -6494475.742 22986349.492 10 0 60879 34200.00000 0 10320970.876 -3993247.032 22995368.076 10 0 60879 35100.00000 0 11816804.405 -1617465.617 22558433.777 10 0 60879 36000.00000 0 13434397.268 578148.880 21683894.263 10 0 60879 36900.00000 0 15122509.405 2547753.415 20388579.750 10 0 60879 37800.00000 0 16823473.189 4256054.494 18697489.220 10 0 60879 38700.00000 0 18475533.036 5679536.147 16643318.530 10 0 60879 39600.00000 0 20015378.688 6807192.028 14265838.280 10 0 60879 40500.00000 0 21380766.879 7640731.184 11611132.279 10 0 60879 41400.00000 0 22513121.665 8194249.008 8730710.329 10 0 60879 42300.00000 0 23360003.982 8493377.244 5680511.830 10 0 60879 43200.00000 0 23877345.962 8573949.044 2519819.207 10 0 60879 44100.00000 0 24031354.902 8480235.738 -689897.693 10 0 60879 45000.00000 0 23800005.467 8262830.378 -3886183.264 10 0 60879 45900.00000 0 23174055.855 7976268.436 -7006819.710 10 0 60879 46800.00000 0 22157543.865 7676487.454 -9991047.706 10 0 60879 47700.00000 0 20767740.809 7418234.493 -12780759.202 10 0 60879 48600.00000 0 19034564.406 7252532.529 -15321638.077 10 0 60879 49500.00000 0 16999474.768 7224314.447 -17564225.447 10 0 60879 50400.00000 0 14713899.653 7370326.015 -19464888.132 10 0 60879 51300.00000 0 12237255.040 7717387.591 -20986670.991 10 0 60879 52200.00000 0 9634644.067 8281088.881 -22100016.400 10 0 60879 53100.00000 0 6974330.831 9064972.441 -22783336.994 10 0 60879 54000.00000 0 4325094.690 10060240.732 -23023430.911 10 0 60879 54900.00000 0 1753575.401 11245999.274 -22815732.023 10 0 60879 55800.00000 0 -678280.477 12590025.675 -22164390.877 10 0 60879 56700.00000 0 -2915566.162 14050032.172 -21082185.448 10 0 60879 57600.00000 0 -4912457.412 15575368.507 -19590264.013 10 0 60879 58500.00000 0 -6633867.625 17109093.530 -17717725.682 10 0 60879 59400.00000 0 -8056647.853 18590328.392 -15501047.173 10 0 60879 60300.00000 0 -9170283.565 19956792.592 -12983367.318 10 0 60879 61200.00000 0 -9977061.019 21147416.399 -10213643.544 10 0 60879 62100.00000 0 -10491698.359 22104920.050 -7245696.934 10 0 60879 63000.00000 0 -10740458.964 22778251.636 -4137164.628 10 0 60879 63900.00000 0 -10759786.143 23124781.420 -948380.125 10 0 60879 64800.00000 0 -10594518.269 23112160.888 2258796.635 10 0 60879 65700.00000 0 -10295760.799 22719768.741 5422176.642 10 0 60879 66600.00000 0 -9918505.793 21939683.492 8480443.421 10 0 60879 67500.00000 0 -9519099.818 20777142.125 11374335.759 10 0 60879 68400.00000 0 -9152667.253 19250465.593 14047789.047 10 0 60879 69300.00000 0 -8870597.520 17390454.223 16449013.616 10 0 60879 70200.00000 0 -8718201.889 15239277.919 18531489.936 10 0 60879 71100.00000 0 -8732638.188 12848906.818 20254862.223 10 0 60879 72000.00000 0 -8941190.472 10279146.882 21585714.017 10 0 60879 72900.00000 0 -9359975.893 7595361.006 22498211.523 10 0 60879 73800.00000 0 -9993133.313 4865968.969 22974602.931 10 0 60879 74700.00000 0 -10832528.258 2159828.624 23005564.406 10 0 60879 75600.00000 0 -11857987.534 -456394.482 22590386.144 10 0 60879 76500.00000 0 -13038054.951 -2920761.277 21736994.583 10 0 60879 77400.00000 0 -14331237.946 -5178393.133 20461809.670 10 0 60879 78300.00000 0 -15687694.484 -7183509.590 18789439.016 10 0 60879 79200.00000 0 -17051291.026 -8901085.826 16752213.628 10 0 60879 80100.00000 0 -18361946.556 -10308061.199 14389572.987 10 0 60879 81000.00000 0 -19558165.190 -11394048.636 11747310.121 10 0 60879 81900.00000 0 -20579651.463 -12161515.297 8876690.266 10 0 60879 82800.00000 0 -21369898.215 -12625426.954 5833459.474 10 0 60879 83700.00000 0 -21878637.633 -12812371.126 2676762.033 10 0 60879 84600.00000 0 -22064051.196 -12759196.162 -532012.246 10 0 60879 85500.00000 0 -21894644.040 -12511224.096 -3730427.978 10 0 60880 0.00000 0 -21350703.310 -12120113.554 -6856227.008 10 0 60880 900.00000 0 -20425277.113 -11641463.757 -9848550.923 10 0 60880 1800.00000 0 -19124632.195 -11132262.725 -12649134.138 10 0 60880 2700.00000 0 -17468168.905 -10648288.211 -15203448.786 10 0 60880 3600.00000 0 -15487796.748 -10241573.132 -17461773.957 10 0 60880 4500.00000 0 -13226795.902 -9958043.717 -19380169.363 10 0 60880 5400.00000 0 -10738212.209 -9835431.260 -20921333.757 10 0 60880 6300.00000 0 -8082852.683 -9901546.448 -22055331.259 10 0 60880 7200.00000 0 -5326965.456 -10172989.623 -22760171.555 10 0 60880 8100.00000 0 -2539701.031 -10654351.558 -23022233.096 10 0 60880 9000.00000 0 209539.315 -11337938.438 -22836521.579 10 0 60880 9900.00000 0 2853757.684 -12204032.402 -22206759.313 10 0 60880 10800.00000 0 5330906.220 -13221676.359 -21145304.366 10 0 60880 11700.00000 0 7586221.037 -14349949.686 -19672901.651 10 0 60880 12600.00000 0 9574247.225 -15539680.717 -17818271.313 10 0 60880 13500.00000 0 11260472.005 -16735523.703 -15617542.863 10 0 60880 14400.00000 0 12622499.545 -17878312.594 -13113546.407 10 0 60880 15300.00000 0 13650720.182 -18907592.415 -10354975.022 10 0 60880 16200.00000 0 14348448.161 -19764221.766 -7395434.889 10 0 60880 17100.00000 0 14731523.995 -20392936.874 -4292401.749 10 0 60880 18000.00000 0 14827400.084 -20744769.328 -1106104.207 10 0 60880 18900.00000 0 14673749.801 -20779216.086 2101644.295 10 0 60880 19800.00000 0 14316659.994 -20466070.644 5268642.088 10 0 60880 20700.00000 0 13808484.079 -19786838.586 8333501.253 10 0 60880 21600.00000 0 13205446.928 -18735678.153 11236831.868 10 0 60880 22500.00000 0 12565102.769 -17319826.341 13922385.944 10 0 60880 23400.00000 0 11943753.215 -15559492.462 16338139.360 10 0 60880 24300.00000 0 11393933.884 -13487223.186 18437291.609 10 0 60880 25200.00000 0 10962074.919 -11146764.798 20179164.790 10 0 60880 26100.00000 0 10686433.321 -8591469.135 21529985.309 10 0 60880 27000.00000 0 10595383.551 -5882308.272 22463533.981 10 0 60880 27900.00000 0 10706137.971 -3085579.001 22961652.612 10 0 60880 28800.00000 0 11023950.891 -270390.836 23014597.663 10 0 60880 29700.00000 0 11541840.011 2493959.827 22621234.241 10 0 60880 30600.00000 0 12240837.727 5140622.050 21789066.388 10 0 60880 31500.00000 0 13090762.786 7607721.295 20534102.442 10 0 60880 32400.00000 0 14051481.212 9840685.018 18880557.122 10 0 60880 33300.00000 0 15074604.883 11794267.084 16860394.922 10 0 60880 34200.00000 0 16105557.638 13434187.196 14512722.397 10 0 60880 35100.00000 0 17085923.046 14738317.237 11883039.856 10 0 60880 36000.00000 0 17955975.649 15697364.989 9022365.900 10 0 60880 36900.00000 0 18657289.196 16315026.517 5986251.039 10 0 60880 37800.00000 0 19135311.551 16607600.781 2833699.126 10 0 60880 38700.00000 0 19341796.833 16603082.740 -373982.424 10 0 60880 39600.00000 0 19236990.875 16339773.420 -3574380.821 10 0 60880 40500.00000 0 18791476.283 15864466.063 -6705200.426 10 0 60880 41400.00000 0 17987597.536 15230285.749 -9705484.840 10 0 60880 42300.00000 0 16820404.409 14494274.771 -12516813.563 10 0 60880 43200.00000 0 15298072.449 13714826.976 -15084448.855 10 0 60880 44100.00000 0 13441781.524 12949080.719 -17358409.448 10 0 60880 45000.00000 0 11285056.606 12250381.762 -19294449.429 10 0 60880 45900.00000 0 8872597.757 11665924.236 -20854922.764 10 0 60880 46800.00000 0 6258647.918 11234669.976 -22009516.482 10 0 60880 47700.00000 0 3504966.597 10985634.414 -22735838.348 10 0 60880 48600.00000 0 678493.954 10936611.387 -23019847.972 10 0 60880 49500.00000 0 -2151197.402 11093390.369 -22856123.508 10 0 60880 50400.00000 0 -4914556.859 11449498.672 -22247959.356 10 0 60880 51300.00000 0 -7544706.362 11986478.805 -21207293.647 10 0 60880 52200.00000 0 -9979977.328 12674688.647 -19754467.480 10 0 60880 53100.00000 0 -12166229.138 13474589.979 -17917821.164 10 0 60880 54000.00000 0 -14058853.762 14338470.471 -15733135.727 10 0 60880 54900.00000 0 -15624384.355 15212525.992 -13242930.872 10 0 60880 55800.00000 0 -16841642.311 16039215.115 -10495633.382 10 0 60880 56700.00000 0 -17702376.622 16759786.277 -7544632.349 10 0 60880 57600.00000 0 -18211370.565 17316870.829 -4447239.745 10 0 60880 58500.00000 0 -18386013.171 17657032.726 -1263576.804 10 0 60880 59400.00000 0 -18255355.116 17733167.280 1944592.066 10 0 60880 60300.00000 0 -17858690.292 17506648.101 5115055.133 10 0 60880 61200.00000 0 -17243723.931 16949131.955 8186355.679 10 0 60880 62100.00000 0 -16464405.225 16043945.594 11098977.734 10 0 60880 63000.00000 0 -15578516.120 14786996.198 13796492.574 10 0 60880 63900.00000 0 -14645117.921 13187167.009 16226644.237 10 0 60880 64800.00000 0 -13721962.869 11266181.073 18342353.753 10 0 60880 65700.00000 0 -12862979.045 9057937.991 20102623.481 10 0 60880 66600.00000 0 -12115933.631 6607350.343 21473324.878 10 0 60880 67500.00000 0 -11520371.976 3968726.875 22427855.295 10 0 60880 68400.00000 0 -11105918.330 1203768.151 22947651.776 10 0 60880 69300.00000 0 -10891009.165 -1620743.762 23022552.333 10 0 60880 70200.00000 0 -10882112.069 -4435467.458 22650997.830 10 0 60880 71100.00000 0 -11073463.199 -7171133.263 21840070.300 10 0 60880 72000.00000 0 -11447334.868 -9761175.573 20605366.350 10 0 60880 72900.00000 0 -11974822.846 -12144258.454 18970707.170 10 0 60880 73800.00000 0 -12617121.311 -14266590.528 16967689.574 10 0 60880 74700.00000 0 -13327232.883 -16083933.382 14635085.513 10 0 60880 75600.00000 0 -14052042.687 -17563220.093 12018100.427 10 0 60880 76500.00000 0 -14734669.715 -18683716.265 9167503.726 10 0 60880 77400.00000 0 -15316996.605 -19437674.814 6138647.490 10 0 60880 78300.00000 0 -15742270.869 -19830456.811 2990391.992 10 0 60880 79200.00000 0 -15957667.037 -19880113.151 -216041.078 10 0 60880 80100.00000 0 -15916700.348 -19616444.614 -3418264.976 10 0 60880 81000.00000 0 -15581388.549 -19079580.179 -6553949.820 10 0 60880 81900.00000 0 -14924068.795 -18318134.072 -9562045.308 10 0 60880 82800.00000 0 -13928791.167 -17387020.097 -12383979.220 10 0 60880 83700.00000 0 -12592228.361 -16345016.538 -14964807.285 10 0 60880 84600.00000 0 -10924061.654 -15252185.499 -17254291.011 10 0 60880 85500.00000 0 -8946825.675 -14167256.716 -19207881.660 10 0 60881 0.00000 0 -6695217.725 -13145087.240 -20787590.664 10 0 60881 900.00000 0 -4214898.626 -12234304.253 -21962730.094 10 0 60881 1800.00000 0 -1560837.935 -11475232.110 -22710506.893 10 0 60881 2700.00000 0 1204731.637 -10898189.100 -23016462.466 10 0 60881 3600.00000 0 4014662.510 -10522226.683 -22874747.429 10 0 60881 4500.00000 0 6799446.669 -10354363.071 -22288227.706 10 0 60881 5400.00000 0 9489869.954 -10389342.616 -21268420.385 10 0 60881 6300.00000 0 12019656.159 -10609930.104 -19835261.176 10 0 60881 7200.00000 0 14327991.446 -10987726.483 -18016708.542 10 0 60881 8100.00000 0 16361824.802 -11484470.596 -15848192.602 10 0 60881 9000.00000 0 18077849.758 -12053771.125 -13371919.878 10 0 60881 9900.00000 0 19444086.022 -12643194.917 -10636047.715 10 0 60881 10800.00000 0 20440996.454 -13196622.995 -7693744.665 10 0 60881 11700.00000 0 21062094.293 -13656774.393 -4602155.283 10 0 60881 12600.00000 0 21314016.811 -13967790.983 -1421289.656 10 0 60881 13500.00000 0 21216063.960 -14077774.042 1787140.651 10 0 60881 14400.00000 0 20799222.935 -13941165.630 4960917.492 10 0 60881 15300.00000 0 20104720.846 -13520874.277 8038518.737 10 0 60881 16200.00000 0 19182167.268 -12790055.484 10960305.393 10 0 60881 17100.00000 0 18087365.391 -11733472.021 13669670.570 10 0 60881 18000.00000 0 16879883.928 -10348376.588 16114128.527 10 0 60881 18900.00000 0 15620491.704 -8644879.354 18246323.392 10 0 60881 19800.00000 0 14368562.149 -6645784.232 20024938.844 10 0 60881 20700.00000 0 13179555.926 -4385899.686 21415491.978 10 0 60881 21600.00000 0 12102686.429 -1910851.479 22390996.841 10 0 60881 22500.00000 0 11178865.093 724554.830 22932485.479 10 0 60881 23400.00000 0 10439011.908 3458355.312 23029376.862 10 0 60881 24300.00000 0 9902801.314 6223750.896 22679686.681 10 0 60881 25200.00000 0 9577895.758 8951637.846 21890073.729 10 0 60881 26100.00000 0 9459699.101 11573242.082 20675721.395 10 0 60881 27000.00000 0 9531640.534 14022749.412 19060055.604 10 0 60881 27900.00000 0 9765977.684 16239823.490 17074303.549 10 0 60881 28800.00000 0 10125085.854 18171907.384 14756900.450 10 0 60881 29700.00000 0 10563179.856 19776213.182 12152754.595 10 0 60881 30600.00000 0 11028396.442 21021316.581 9312383.780 10 0 60881 31500.00000 0 11465149.760 21888289.431 6290939.110 10 0 60881 32400.00000 0 11816660.287 22371322.403 3147134.663 10 0 60881 33300.00000 0 12027549.808 22477811.191 -57896.241 10 0 60881 34200.00000 0 12046391.752 22227902.339 -3261795.517 10 0 60881 35100.00000 0 11828107.689 21653517.718 -6402201.541 10 0 60881 36000.00000 0 11336107.014 20796898.955 -9417972.436 10 0 60881 36900.00000 0 10544077.633 19708733.675 -12250386.367 10 0 60881 37800.00000 0 9437350.220 18445943.314 -14844294.388 10 0 60881 38700.00000 0 8013776.822 17069226.705 -17149202.374 10 0 60881 39600.00000 0 6284085.321 15640463.947 -19120260.138 10 0 60881 40500.00000 0 4271693.609 14220090.861 -20719137.985 10 0 60881 41400.00000 0 2011990.332 12864555.269 -21914773.463 10 0 60881 42300.00000 0 -448888.347 11623962.553 -22683973.836 10 0 60881 43200.00000 0 -3055735.241 10540009.550 -23011862.951 10 0 60881 44100.00000 0 -5746332.220 9644293.276 -22892164.316 10 0 60881 45000.00000 0 -8453808.127 8957064.849 -22327315.505 10 0 60881 45900.00000 0 -11109196.507 8486479.919 -21328412.350 10 0 60881 46800.00000 0 -13644086.953 8228375.855 -19914984.562 10 0 60881 47700.00000 0 -15993260.021 8166583.665 -18114607.744 10 0 60881 48600.00000 0 -18097196.552 8273760.072 -15962359.703 10 0 60881 49500.00000 0 -19904357.677 8512703.362 -13500132.042 10 0 60881 50400.00000 0 -21373141.364 8838096.355 -10775810.686 10 0 60881 51300.00000 0 -22473434.925 9198601.912 -7842341.489 10 0 60881 52200.00000 0 -23187699.985 9539221.828 -4756699.290 10 0 60881 53100.00000 0 -23511545.763 9803818.816 -1578780.638 10 0 60881 54000.00000 0 -23453768.168 9937694.772 1629758.169 10 0 60881 54900.00000 0 -23035854.402 9890116.217 4806695.072 10 0 60881 55800.00000 0 -22290975.095 9616680.259 7890445.078 10 0 60881 56700.00000 0 -21262507.221 9081421.255 10821248.730 10 0 60881 57600.00000 0 -20002150.441 8258569.267 13542323.543 10 0 60881 58500.00000 0 -18567716.265 7133886.197 16000956.528 10 0 60881 59400.00000 0 -17020682.729 5705523.053 18149517.339 10 0 60881 60300.00000 0 -15423616.704 3984361.774 19946373.236 10 0 60881 61200.00000 0 -13837571.147 1993826.355 21356688.987 10 0 60881 62100.00000 0 -12319565.339 -230830.104 22353097.078 10 0 60881 63000.00000 0 -10920252.529 -2643734.266 22916225.975 10 0 60881 63900.00000 0 -9681871.543 -5190048.758 23035076.659 10 0 60881 64800.00000 0 -8636567.136 -7808008.783 22707240.325 10 0 60881 65700.00000 0 -7805148.649 -10431256.419 21938952.817 10 0 60881 66600.00000 0 -7196338.557 -12991377.447 20744984.172 10 0 60881 67500.00000 0 -6806542.262 -15420536.877 19148364.521 10 0 60881 68400.00000 0 -6620148.940 -17654104.853 17179950.482 10 0 60881 69300.00000 0 -6610351.165 -19633164.434 14877839.184 10 0 60881 70200.00000 0 -6740449.297 -21306797.144 12286640.016 10 0 60881 71100.00000 0 -6965586.079 -22634050.882 9456617.067 10 0 60881 72000.00000 0 -7234838.515 -23585507.501 6442718.092 10 0 60881 72900.00000 0 -7493578.648 -24144383.862 3303508.346 10 0 60881 73800.00000 0 -7686002.974 -24307119.456 100029.961 10 0 60881 74700.00000 0 -7757722.704 -24083425.307 -3105390.597 10 0 60881 75600.00000 0 -7658304.018 -23495791.643 -6250363.056 10 0 60881 76500.00000 0 -7343649.316 -22578474.901 -9273657.138 10 0 60881 77400.00000 0 -6778117.005 -21376006.862 -12116404.604 10 0 60881 78300.00000 0 -5936288.436 -19941289.169 -14723255.029 10 0 60881 79200.00000 0 -4804305.612 -18333354.151 -17043461.746 10 0 60881 80100.00000 0 -3380721.661 -16614887.065 -19031876.006 10 0 60881 81000.00000 0 -1676826.902 -14849614.808 -20649829.456 10 0 60881 81900.00000 0 283564.360 -13099671.581 -21865887.593 10 0 60881 82800.00000 0 2464858.167 -11423052.648 -22656459.572 10 0 60881 83700.00000 0 4820925.832 -9871263.178 -23006252.901 10 0 60881 84600.00000 0 7296797.803 -8487260.526 -22908564.670 10 0 60881 85500.00000 0 9830735.997 -7303775.606 -22365404.298 10 0 60882 0.00000 0 12356598.125 -6342082.740 -21387446.165 10 0 60882 900.00000 0 14806397.014 -5611267.768 -19993813.047 10 0 60882 1800.00000 0 17112945.107 -5108024.753 -18211696.515 10 0 60882 2700.00000 0 19212478.805 -4816986.442 -16075820.384 10 0 60882 3600.00000 0 21047150.365 -4711574.193 -13627759.194 10 0 60882 4500.00000 0 22567285.300 -4755329.415 -10915124.802 10 0 60882 5400.00000 0 23733311.854 -4903669.137 -7990637.282 10 0 60882 6300.00000 0 24517282.659 -5105990.433 -4911098.297 10 0 60882 7200.00000 0 24903925.990 -5308033.915 -1736287.109 10 0 60882 8100.00000 0 24891183.891 -5454405.827 1472199.159 10 0 60882 9000.00000 0 24490215.691 -5491151.789 4652138.442 10 0 60882 9900.00000 0 23724867.855 -5368273.264 7741886.632 10 0 60882 10800.00000 0 22630633.266 -5042080.415 10681567.289 10 0 60882 11700.00000 0 21253144.190 -4477282.042 13414225.428 10 0 60882 12600.00000 0 19646262.457 -3648724.470 15886923.457 10 0 60882 13500.00000 0 17869846.847 -2542705.984 18051758.715 10 0 60882 14400.00000 0 15987290.782 -1157811.127 19866783.722 10 0 60882 15300.00000 0 14062932.678 494770.844 21296812.118 10 0 60882 16200.00000 0 12159446.250 2391457.770 22314095.585 10 0 60882 17100.00000 0 10335318.679 4497009.246 22898859.328 10 0 60882 18000.00000 0 8642520.776 6765755.129 23039686.244 10 0 60882 18900.00000 0 7124465.286 9143268.628 22733742.528 10 0 60882 19800.00000 0 5814337.579 11568416.295 21986840.166 10 0 60882 20700.00000 0 4733867.751 13975701.544 20813334.570 10 0 60882 21600.00000 0 3892594.957 16297805.900 19235858.438 10 0 60882 22500.00000 0 3287654.590 18468223.645 17284895.859 10 0 60882 23400.00000 0 2904097.224 20423881.048 14998203.645 10 0 60882 24300.00000 0 2715726.102 22107631.495 12420089.829 10 0 60882 25200.00000 0 2686418.145 23470522.341 9600562.141 10 0 60882 26100.00000 0 2771872.925 24473738.312 6594362.177 10 0 60882 27000.00000 0 2921715.719 25090139.321 3459903.469 10 0 60882 27900.00000 0 3081865.395 25305327.363 258134.014 10 0 60882 28800.00000 0 3197066.272 25118196.702 -2948654.261 10 0 60882 29700.00000 0 3213475.692 24540943.474 -6098045.239 10 0 60882 30600.00000 0 3081196.395 23598533.714 -9128722.865 10 0 60882 31500.00000 0 2756644.913 22327651.928 -11981674.871 10 0 60882 32400.00000 0 2204654.023 20775174.559 -14601351.434 10 0 60882 33300.00000 0 1400218.697 18996232.911 -16936755.141 10 0 60882 34200.00000 0 329810.175 17051947.594 -18942440.189 10 0 60882 35100.00000 0 -1007798.638 15006930.348 -20579400.825 10 0 60882 36000.00000 0 -2601232.439 12926658.786 -21815831.521 10 0 60882 36900.00000 0 -4426751.011 10874834.648 -22627744.146 10 0 60882 37800.00000 0 -6449015.624 8910836.482 -22999430.456 10 0 60882 38700.00000 0 -8622352.788 7087373.262 -22923761.465 10 0 60882 39600.00000 0 -10892462.702 5448436.623 -22402318.469 10 0 60882 40500.00000 0 -13198501.269 4027636.417 -21445353.862 10 0 60882 41400.00000 0 -15475448.859 2846987.943 -20071583.119 10 0 60882 42300.00000 0 -17656667.078 1916199.995 -18307812.547 10 0 60882 43200.00000 0 -19676537.065 1232491.745 -16188410.482 10 0 60882 44100.00000 0 -21473069.458 780944.192 -13754632.575 10 0 60882 45000.00000 0 -22990377.445 535369.532 -11053814.561 10 0 60882 45900.00000 0 -24180910.123 459660.083 -8138448.470 10 0 60882 46800.00000 0 -25007353.380 509558.371 -5065160.361 10 0 60882 47700.00000 0 -25444119.590 634772.471 -1893609.715 10 0 60882 48600.00000 0 -25478364.429 781346.259 1314668.094 10 0 60882 49500.00000 0 -25110489.194 894183.796 4497453.638 10 0 60882 50400.00000 0 -24354108.524 919620.843 7593046.382 10 0 60882 51300.00000 0 -23235485.456 807934.661 10541455.606 10 0 60882 52200.00000 0 -21792458.042 515686.121 13285556.505 10 0 60882 53100.00000 0 -20072902.807 7795.342 15772189.469 10 0 60882 54000.00000 0 -18132799.300 -740736.644 17953181.955 10 0 60882 54900.00000 0 -16033976.341 -1743532.846 19786273.927 10 0 60882 55800.00000 0 -13841633.428 -3002026.737 21235929.788 10 0 60882 56700.00000 0 -11621739.836 -4505165.054 22274021.946 10 0 60882 57600.00000 0 -9438418.689 -6229640.577 22880373.488 10 0 60882 58500.00000 0 -7351423.785 -8140646.597 23043149.982 10 0 60882 59400.00000 0 -5413813.051 -10193123.320 22759092.991 10 0 60882 60300.00000 0 -3669914.362 -12333446.158 22033590.654 10 0 60882 61200.00000 0 -2153667.558 -14501487.410 20880583.410 10 0 60882 62100.00000 0 -887411.095 -16632967.258 19322305.846 10 0 60882 63000.00000 0 118836.512 -18661997.608 17388868.514 10 0 60882 63900.00000 0 867570.598 -20523713.794 15117686.574 10 0 60882 64800.00000 0 1373461.558 -22156884.968 12552765.040 10 0 60882 65700.00000 0 1662497.586 -23506394.230 9743853.331 10 0 60882 66600.00000 0 1770644.961 -24525484.342 6745484.667 10 0 60882 67500.00000 0 1742082.505 -25177674.215 3615918.418 10 0 60882 68400.00000 0 1627085.063 -25438264.729 416005.836 10 0 60882 69300.00000 0 1479646.120 -25295369.468 -2791998.436 10 0 60882 70200.00000 0 1354941.097 -24750425.914 -5945655.281 10 0 60882 71100.00000 0 1306739.944 -23818164.646 -8983565.769 10 0 60882 72000.00000 0 1384880.068 -22526037.151 -11846576.539 10 0 60882 72900.00000 0 1632908.164 -20913125.966 -14478941.292 10 0 60882 73800.00000 0 2085992.385 -19028582.967 -16829414.703 10 0 60882 74700.00000 0 2769194.603 -16929661.688 -18852256.587 10 0 60882 75600.00000 0 3696177.157 -14679426.747 -20508126.220 10 0 60882 76500.00000 0 4868399.746 -12344236.935 -21764849.159 10 0 60882 77400.00000 0 6274841.231 -9991107.857 -22598041.700 10 0 60882 78300.00000 0 7892258.694 -7685064.768 -22991581.149 10 0 60882 79200.00000 0 9685973.356 -5486596.208 -22937913.304 10 0 60882 80100.00000 0 11611150.687 -3449314.458 -22438191.767 10 0 60882 81000.00000 0 13614521.222 -1617919.737 -21502247.069 10 0 60882 81900.00000 0 15636470.202 -26551.962 -20148386.812 10 0 60882 82800.00000 0 17613408.647 1302402.557 -18403031.297 10 0 60882 83700.00000 0 19480326.814 2359001.402 -16300192.153 10 0 60882 84600.00000 0 21173423.337 3145906.408 -13880804.459 10 0 60882 85500.00000 0 22632700.356 3678009.438 -11191925.677 99